CW9414 Weather Reports


time (UTC)temp
C
wind
direction
speed
KPH
gust
KPH
rain 1hr
cm
rain 24hr
cm
rain mn
cm
humidity
%
barometer
mb
20260902045446 27 46 0.0 0.0 0.00 0.00 0.00 70 1009.9
20260902044446 27 46 0.0 0.0 0.00 0.00 0.00 70 1009.7
20260902043446 27 46 0.0 0.0 0.00 0.00 0.00 69 1009.7
20260902042446 27 46 0.0 0.0 0.00 0.00 0.00 69 1010.0
20260902041446 27 46 0.0 0.0 0.00 0.00 0.00 69 1010.2
20260902040446 27 46 0.0 0.0 0.00 0.00 0.00 69 1010.2
20260902035446 28 46 0.0 0.0 0.00 0.00 0.00 69 1010.2
20260902034446 28 46 0.0 0.0 0.00 0.00 0.00 68 1010.2
20260902033447 28 46 0.0 0.0 0.00 0.00 0.00 68 1010.2
20260902032446 28 46 0.0 0.0 0.00 0.00 0.00 68 1010.1
20260902031446 28 46 0.0 0.0 0.00 0.00 0.00 68 1009.7
20260902030447 28 46 0.0 0.0 0.00 0.00 0.00 68 1009.7
20260902025450 28 46 0.0 0.0 0.00 0.00 0.00 68 1009.6
20260902024446 28 46 0.0 0.0 0.00 0.00 0.00 66 1009.5
20260902023446 28 46 0.0 0.0 0.00 0.00 0.00 67 1009.5
20260902022446 28 46 0.0 0.0 0.00 0.00 0.00 67 1009.3
20260902021446 29 46 0.0 0.0 0.00 0.00 0.00 65 1009.0
20260902020449 29 46 0.0 0.0 0.00 0.00 0.00 64 1009.0
20260902015446 29 46 0.0 0.0 0.00 0.00 0.00 63 1008.8
20260902014449 29 46 0.0 0.0 0.00 0.00 0.00 62 1008.6
20260902013446 29 46 0.0 0.0 0.00 0.00 0.00 61 1008.7
20260902012449 29 46 0.0 0.0 0.00 0.00 0.00 61 1008.7
20260902011446 30 46 0.0 0.0 0.00 0.00 0.00 61 1008.7
20260902010446 30 46 0.0 0.0 0.00 0.00 0.00 61 1008.7
20260902005446 30 46 0.0 0.0 0.00 0.00 0.00 60 1008.9
20260902004446 30 46 0.0 0.0 0.00 0.00 0.00 60 1008.8
20260902003449 30 46 0.0 0.0 0.00 0.00 0.00 60 1008.8
20260902002446 30 46 0.0 1.6 0.00 0.00 0.00 60 1008.7
20260902001446 31 46 0.0 1.6 0.00 0.00 0.00 61 1008.7
20260902000446 31 46 0.0 0.0 0.00 0.00 0.00 61 1008.7
20260901235449 31 46 0.0 3.2 0.00 0.00 0.00 60 1008.7
20260901234446 31 46 0.0 3.2 0.00 0.00 0.00 58 1008.7
20260901233446 32 46 0.0 11.3 0.00 0.00 0.00 58 1008.7
20260901232445 32 20 1.6 3.2 0.00 0.00 0.00 52 1008.7
20260901231449 32 20 0.0 0.0 0.00 0.00 0.00 51 1008.7
20260901230446 32 20 0.0 3.2 0.00 0.00 0.00 51 1008.7
20260901225446 32 20 0.0 3.2 0.00 0.00 0.00 49 1008.8
20260901224446 32 20 0.0 0.0 0.00 0.00 0.00 48 1008.8
20260901223446 33 20 0.0 0.0 0.00 0.00 0.00 47 1008.8
20260901222446 33 20 0.0 0.0 0.00 0.00 0.00 47 1008.8
20260901221449 33 20 0.0 3.2 0.00 0.00 0.00 45 1009.1
20260901220446 33 20 0.0 0.0 0.00 0.00 0.00 45 1009.1
20260901215446 33 20 0.0 0.0 0.00 0.00 0.00 44 1009.3
20260901214445 33 20 0.0 3.2 0.00 0.00 0.00 44 1009.5
20260901213446 33 20 0.0 0.0 0.00 0.00 0.00 45 1009.5
20260901212446 34 20 0.0 3.2 0.00 0.00 0.00 46 1009.3
20260901211445 34 20 0.0 3.2 0.00 0.00 0.00 47 1009.2
20260901210449 35 20 0.0 4.8 0.00 0.00 0.00 45 1009.2
20260901205446 35 20 1.6 8.0 0.00 0.00 0.00 45 1009.3
20260901204449 36 20 0.0 4.8 0.00 0.00 0.00 42 1009.6
20260901203449 36 20 0.0 9.7 0.00 0.00 0.00 44 1009.6
20260901202446 36 34 0.0 6.4 0.00 0.00 0.00 45 1009.8
20260901201446 36 12 4.8 11.3 0.00 0.00 0.00 45 1010.0
20260901200445 35 22 3.2 4.8 0.00 0.00 0.00 47 1010.0
20260901195446 34 22 0.0 9.7 0.00 0.00 0.00 48 1010.2
20260901194446 34 17 4.8 6.4 0.00 0.00 0.00 48 1010.2
20260901193446 34 0 0.0 4.8 0.00 0.00 0.00 47 1010.2
20260901192445 34 300 1.6 4.8 0.00 0.00 0.00 48 1010.3
20260901191446 33 300 0.0 6.4 0.00 0.00 0.00 50 1010.3
20260901190445 33 9 4.8 9.7 0.00 0.00 0.00 51 1010.3
20260901185448 33 20 1.6 6.4 0.00 0.00 0.00 51 1010.7
20260901184445 33 325 1.6 6.4 0.00 0.00 0.00 52 1010.8
20260901183445 33 300 3.2 8.0 0.00 0.00 0.00 53 1010.8
20260901182449 33 17 0.0 4.8 0.00 0.00 0.00 55 1010.8
20260901181445 32 17 0.0 6.4 0.00 0.00 0.00 57 1011.0
20260901180446 32 17 0.0 8.0 0.00 0.00 0.00 59 1011.0
20260901175449 31 18 1.6 4.8 0.00 0.00 0.00 62 1011.3
20260901174445 31 18 1.6 6.4 0.00 0.00 0.00 63 1011.8
20260901173445 31 23 1.6 3.2 0.00 0.00 0.00 64 1011.8
20260901172445 31 26 0.0 4.8 0.00 0.00 0.00 65 1011.9
20260901171446 30 26 4.8 8.0 0.00 0.00 0.00 65 1012.2
20260901170446 30 26 3.2 8.0 0.00 0.00 0.00 67 1012.2
20260901165446 30 27 1.6 8.0 0.00 0.00 0.00 69 1012.2
20260901164445 30 27 0.0 1.6 0.00 0.00 0.00 72 1012.2
20260901163445 30 27 1.6 6.4 0.00 0.00 0.00 72 1012.2
20260901162446 30 317 1.6 4.8 0.00 0.00 0.00 73 1012.3
20260901161445 29 311 0.0 4.8 0.00 0.00 0.00 73 1012.3
20260901160445 29 313 0.0 6.4 0.00 0.00 0.00 75 1012.3
20260901155445 29 312 1.6 9.7 0.00 0.00 0.00 75 1012.2
20260901154446 28 355 0.0 6.4 0.00 0.00 0.00 75 1012.2
20260901153446 28 258 4.8 6.4 0.00 0.00 0.00 77 1012.2
20260901152445 28 257 0.0 4.8 0.00 0.00 0.00 78 1012.1
20260901151446 28 252 4.8 9.7 0.00 0.00 0.00 79 1012.3
20260901150445 28 146 1.6 6.4 0.00 0.00 0.00 79 1012.3
20260901145446 27 145 3.2 6.4 0.00 0.00 0.00 81 1012.3
20260901144446 27 144 0.0 6.4 0.00 0.00 0.00 82 1012.3
20260901143446 27 144 0.0 3.2 0.00 0.00 0.00 82 1012.3
20260901142445 27 145 0.0 1.6 0.00 0.00 0.00 83 1012.2
20260901141448 27 144 0.0 3.2 0.00 0.00 0.00 83 1012.2
20260901140449 27 144 1.6 6.4 0.00 0.00 0.00 84 1012.2
20260901135445 27 145 0.0 0.0 0.00 0.00 0.00 85 1012.3
20260901134445 26 144 0.0 0.0 0.00 0.00 0.00 85 1012.2
20260901133445 26 144 0.0 0.0 0.00 0.00 0.00 85 1012.2
20260901132446 26 144 0.0 0.0 0.00 0.00 0.00 85 1011.9
20260901131445 26 144 0.0 0.0 0.00 0.00 0.00 85 1011.7
20260901130448 26 144 0.0 0.0 0.00 0.00 0.00 85 1011.7
20260901125445 26 144 0.0 0.0 0.00 0.00 0.00 85 1011.5
20260901124445 26 144 0.0 0.0 0.00 0.00 0.00 85 1011.3
20260901123445 26 144 0.0 0.0 0.00 0.00 0.00 85 1011.3
20260901122445 26 144 0.0 0.0 0.00 0.00 0.00 85 1011.2
20260901121445 26 144 0.0 0.0 0.00 0.00 0.00 84 1010.8
20260901120445 26 144 0.0 0.0 0.00 0.00 0.00 84 1010.8
20260901115445 26 144 0.0 0.0 0.00 0.00 0.00 84 1010.7
20260901114445 26 144 0.0 0.0 0.00 0.00 0.00 84 1010.8
20260901113445 26 144 0.0 0.0 0.00 0.00 0.00 84 1010.8
20260901112445 26 144 0.0 0.0 0.00 0.00 0.00 84 1010.8
20260901111445 26 144 0.0 0.0 0.00 0.00 0.00 83 1010.8
20260901110445 26 145 0.0 0.0 0.00 0.00 0.00 83 1010.8
20260901105445 26 145 0.0 0.0 0.00 0.00 0.00 82 1010.8
20260901104445 26 144 0.0 0.0 0.00 0.00 0.00 82 1010.6
20260901103445 26 144 0.0 0.0 0.00 0.00 0.00 82 1010.6
20260901102448 26 144 0.0 0.0 0.00 0.00 0.00 82 1010.7
20260901101445 26 144 0.0 0.0 0.00 0.00 0.00 82 1010.7
20260901100445 26 144 0.0 0.0 0.00 0.00 0.00 81 1010.7
20260901095445 26 144 0.0 0.0 0.00 0.00 0.00 81 1010.8
20260901094448 27 144 0.0 0.0 0.00 0.00 0.00 81 1010.7
20260901093448 27 144 0.0 0.0 0.00 0.00 0.00 80 1010.7
20260901092445 27 144 0.0 0.0 0.00 0.00 0.00 80 1010.8
20260901091445 27 144 0.0 0.0 0.00 0.00 0.00 80 1010.7
20260901090445 27 144 0.0 0.0 0.00 0.00 0.00 80 1010.7
20260901085445 27 144 0.0 0.0 0.00 0.00 0.00 79 1010.8
20260901084448 27 144 0.0 0.0 0.00 0.00 0.00 79 1011.0
20260901083445 27 144 0.0 0.0 0.00 0.00 0.00 79 1011.0
20260901082445 27 144 0.0 0.0 0.00 0.00 0.00 79 1011.2
20260901081445 27 144 0.0 0.0 0.00 0.00 0.00 79 1011.2
20260901080444 27 144 0.0 0.0 0.00 0.00 0.00 79 1011.2
20260901075448 27 144 0.0 0.0 0.00 0.00 0.00 79 1011.3
20260901074445 27 144 0.0 0.0 0.00 0.00 0.00 78 1011.3
20260901073445 27 144 0.0 0.0 0.00 0.00 0.00 78 1011.3
20260901072445 27 144 0.0 0.0 0.00 0.00 0.00 78 1011.3
20260901071445 27 144 0.0 0.0 0.00 0.00 0.00 77 1011.3
20260901070445 27 144 0.0 0.0 0.00 0.00 0.00 77 1011.3
20260901065444 27 144 0.0 0.0 0.00 0.00 0.00 77 1011.3
20260901064448 27 144 0.0 0.0 0.00 0.00 0.00 76 1011.4
20260901063444 27 144 0.0 0.0 0.00 0.00 0.00 75 1011.4
20260901062444 28 144 0.0 0.0 0.00 0.00 0.00 75 1011.5
20260901061448 28 144 0.0 0.0 0.00 0.00 0.00 75 1011.7
20260901060444 28 144 0.0 0.0 0.00 0.00 0.00 74 1011.7
20260901055448 28 144 0.0 0.0 0.00 0.00 0.00 74 1011.3
20260901054444 28 144 0.0 1.6 0.00 0.00 0.00 75 1011.3
20260901053445 28 144 0.0 1.6 0.00 0.00 0.00 74 1011.3
20260901052445 28 144 0.0 0.0 0.00 0.00 0.00 73 1011.3
20260901051444 28 144 0.0 0.0 0.00 0.00 0.00 73 1011.2
20260901050445 28 144 0.0 0.0 0.00 0.00 0.00 73 1011.0